Weather History for Hearne, TX

Change the Weather History Date:

Sunday, December 9, 2012

  Actual Average (KCLL) Record (KCLL)
Temperature  
Mean Temperature 70 °F 53 °F  
Max Temperature 82 °F 63 °F 83 °F (2007)
Min Temperature 57 °F 43 °F 19 °F (1917)
Degree Days  
Heating Degree Days 0 12  
Month to date heating degree days 104  
Since 1 July heating degree days 329  
Cooling Degree Days 4 1  
Month to date cooling degree days 9  
Year to date cooling degree days 3082  
Growing Degree Days 20 (Base 50)    
Moisture  
Dew Point 55 °F    
Average Humidity 55    
Maximum Humidity 73    
Minimum Humidity 31    
Precipitation  
Precipitation 0.01 in 0.11 in 1.85 in (2012)
Month to date precipitation 0.96  
Year to date precipitation 37.79  
Sea Level Pressure  
Sea Level Pressure 29.86 in    
Wind  
Wind Speed 4 mph (West)    
Max Wind Speed 20 mph    
Max Gust Speed 26 mph    
Visibility 8 miles    
Events Rain , Thunderstorm    
T = Trace of Precipitation, MM = Missing Value Source: NWS Daily Summary

Daily Weather History Graph

Daily Weather History Graph

Search for Another Location

Airport:

Trip Planner

Search our weather history database for the weather conditions in past years. The results will help you decide how hot, cold, wet, or windy it might be!

Date:

Astronomy

Dec. 09, 2012 Rise Set
Actual Time 7:13 AM CST 5:25 PM CST
Civil Twilight 6:46 AM CST 5:51 PM CST
Nautical Twilight 6:16 AM CST 6:21 PM CST
Astronomical Twilight 5:47 AM CST 6:51 PM CST
Moon 2:59 AM CST (12/9) 2:22 PM CST (12/9)
Length of Visible Light 11h 04m
Length of Day
10h 11m
Waning Crescent, 18% of the Moon is Illuminated
Dec 9
Waning Crescent
Dec 13
New
Dec 19
First Quarter
Dec 28
Full
Jan 4
Last Quarter

Hourly Weather History & Observations

Time (CST) Temp. Heat Index Dew Point Humidity Pressure Visibility Wind Dir Wind Speed Gust Speed Precip Events Conditions
12:15 AM 73.4 °F - 62.6 °F 69% 29.85 in 10.0 mi Calm Calm - N/A   Overcast
12:35 AM 73.4 °F - 62.6 °F 69% 29.85 in 10.0 mi Calm Calm - N/A   Overcast
1:15 AM 73.4 °F - 62.6 °F 69% 29.85 in 10.0 mi Calm Calm - N/A   Overcast
1:35 AM 73.4 °F - 62.6 °F 69% 29.85 in 7.0 mi Calm Calm - N/A   Overcast
1:55 AM 73.4 °F - 62.6 °F 69% 29.85 in 7.0 mi Calm Calm - N/A   Overcast
2:15 AM 73.4 °F - 62.6 °F 69% 29.85 in 7.0 mi Calm Calm - N/A   Overcast
2:35 AM 71.6 °F - 62.6 °F 73% 29.85 in 7.0 mi Calm Calm - N/A   Overcast
2:55 AM 71.6 °F - 62.6 °F 73% 29.85 in 7.0 mi Calm Calm - N/A   Overcast
3:15 AM 71.6 °F - 62.6 °F 73% 29.85 in 7.0 mi Calm Calm - N/A   Overcast
3:35 AM 71.6 °F - 62.6 °F 73% 29.85 in 7.0 mi Calm Calm - N/A   Overcast
3:55 AM 73.4 °F - 62.6 °F 69% 29.85 in 7.0 mi Calm Calm - N/A   Overcast
4:15 AM 73.4 °F - 62.6 °F 69% 29.85 in 7.0 mi South 3.5 mph - N/A   Overcast
4:35 AM 73.4 °F - 62.6 °F 69% 29.84 in 7.0 mi Calm Calm - N/A   Overcast
4:55 AM 73.4 °F - 62.6 °F 69% 29.84 in 7.0 mi Calm Calm - N/A   Overcast
5:15 AM 73.4 °F - 62.6 °F 69% 29.84 in 7.0 mi Calm Calm - N/A   Overcast
5:35 AM 73.4 °F - 62.6 °F 69% 29.85 in 7.0 mi Calm Calm - N/A   Overcast
6:15 AM 71.6 °F - 62.6 °F 73% 29.86 in 7.0 mi Calm Calm - N/A   Overcast
6:35 AM 71.6 °F - 62.6 °F 73% 29.86 in 7.0 mi Calm Calm - N/A   Overcast
6:55 AM 71.6 °F - 62.6 °F 73% 29.87 in 7.0 mi Calm Calm - N/A   Mostly Cloudy
7:15 AM 71.6 °F - 62.6 °F 73% 29.87 in 7.0 mi Calm Calm - N/A   Overcast
7:35 AM 71.6 °F - 62.6 °F 73% 29.87 in 7.0 mi Calm Calm - N/A   Overcast
7:55 AM 73.4 °F - 62.6 °F 69% 29.87 in 7.0 mi Calm Calm - N/A   Overcast
8:15 AM 73.4 °F - 62.6 °F 69% 29.87 in 7.0 mi Calm Calm - N/A   Overcast
8:35 AM 73.4 °F - 62.6 °F 69% 29.88 in 5.0 mi Calm Calm - N/A   Haze
8:55 AM 75.2 °F - 60.8 °F 61% 29.88 in 7.0 mi Calm Calm - N/A   Overcast
9:15 AM 75.2 °F - 60.8 °F 61% 29.89 in 7.0 mi South 5.8 mph - N/A   Overcast
9:35 AM 77.0 °F - 60.8 °F 57% 29.89 in 7.0 mi Calm Calm - N/A   Overcast
9:55 AM 77.0 °F - 60.8 °F 57% 29.89 in 7.0 mi South 11.5 mph 17.3 mph N/A   Overcast
10:15 AM 77.0 °F - 60.8 °F 57% 29.89 in 7.0 mi South 6.9 mph - N/A   Overcast
10:35 AM 77.0 °F - 60.8 °F 57% 29.89 in 7.0 mi Calm Calm - N/A   Overcast
10:55 AM 78.8 °F - 60.8 °F 54% 29.88 in 7.0 mi South 12.7 mph - N/A   Overcast
11:15 AM 78.8 °F - 60.8 °F 54% 29.87 in 7.0 mi South 10.4 mph - N/A   Overcast
11:35 AM 80.6 °F 81.1 °F 59.0 °F 48% 29.86 in 7.0 mi South 12.7 mph 18.4 mph N/A   Mostly Cloudy
11:55 AM 80.6 °F 81.1 °F 59.0 °F 48% 29.86 in 7.0 mi South 10.4 mph 19.6 mph N/A   Mostly Cloudy
12:15 PM 80.6 °F 81.1 °F 59.0 °F 48% 29.85 in 7.0 mi South 10.4 mph 18.4 mph N/A   Mostly Cloudy
12:35 PM 80.6 °F 81.1 °F 59.0 °F 48% 29.84 in 7.0 mi SSW 9.2 mph - N/A   Overcast
12:55 PM 80.6 °F 81.1 °F 59.0 °F 48% 29.83 in 7.0 mi SW 4.6 mph - N/A   Overcast
1:15 PM 80.6 °F 81.1 °F 59.0 °F 48% 29.82 in 7.0 mi SSW 9.2 mph - N/A   Overcast
1:35 PM 80.6 °F 80.8 °F 57.2 °F 45% 29.81 in 7.0 mi SW 12.7 mph 16.1 mph N/A   Scattered Clouds
1:55 PM 82.4 °F 81.7 °F 55.4 °F 39% 29.80 in 7.0 mi SW 10.4 mph - N/A   Scattered Clouds
2:15 PM 82.4 °F 81.7 °F 55.4 °F 39% 29.79 in 7.0 mi SW 8.1 mph - N/A   Mostly Cloudy
2:35 PM 82.4 °F 81.7 °F 55.4 °F 39% 29.78 in 7.0 mi Calm Calm - N/A   Scattered Clouds
2:55 PM 82.4 °F 81.4 °F 53.6 °F 37% 29.77 in 10.0 mi SSW 9.2 mph - N/A   Scattered Clouds
3:15 PM 82.4 °F 81.7 °F 55.4 °F 39% 29.77 in 7.0 mi South 8.1 mph - N/A   Scattered Clouds
3:35 PM 82.4 °F 81.7 °F 55.4 °F 39% 29.77 in 7.0 mi SSW 10.4 mph - N/A   Scattered Clouds
3:55 PM 82.4 °F 81.7 °F 55.4 °F 39% 29.78 in 7.0 mi Calm Calm - N/A   Scattered Clouds
4:15 PM 82.4 °F 81.7 °F 55.4 °F 39% 29.78 in 7.0 mi Calm Calm - N/A   Scattered Clouds
4:35 PM 82.4 °F 81.7 °F 55.4 °F 39% 29.78 in 7.0 mi Calm Calm - N/A   Scattered Clouds
4:55 PM 80.6 °F 80.5 °F 55.4 °F 42% 29.78 in 7.0 mi Calm Calm - N/A   Clear
5:15 PM 80.6 °F 80.5 °F 55.4 °F 42% 29.80 in 7.0 mi WNW 18.4 mph 26.5 mph N/A   Scattered Clouds
5:35 PM 71.6 °F - 42.8 °F 35% 29.81 in 10.0 mi NNW 16.1 mph 24.2 mph N/A   Mostly Cloudy
5:55 PM 69.8 °F - 37.4 °F 31% 29.81 in 10.0 mi NNW 18.4 mph 26.5 mph N/A   Mostly Cloudy
6:15 PM 68.0 °F - 37.4 °F 33% 29.83 in 10.0 mi NNW 17.3 mph 24.2 mph N/A   Scattered Clouds
6:35 PM 66.2 °F - 37.4 °F 35% 29.84 in 10.0 mi NNW 18.4 mph - N/A   Clear
6:55 PM 64.4 °F - 39.2 °F 40% 29.85 in 10.0 mi NNW 16.1 mph 24.2 mph N/A   Scattered Clouds
7:15 PM 62.6 °F - 39.2 °F 42% 29.86 in 10.0 mi NNW 18.4 mph 26.5 mph N/A   Clear
7:35 PM 62.6 °F - 41.0 °F 45% 29.90 in 10.0 mi North 11.5 mph 20.7 mph N/A   Mostly Cloudy
7:55 PM 62.6 °F - 41.0 °F 45% 29.89 in 10.0 mi North 13.8 mph 19.6 mph N/A   Overcast
8:15 PM 62.6 °F - 41.0 °F 45% 29.91 in 10.0 mi North 13.8 mph 21.9 mph N/A   Mostly Cloudy
8:35 PM 60.8 °F - 41.0 °F 48% 29.92 in 10.0 mi North 11.5 mph 18.4 mph N/A Thunderstorm Thunderstorm
8:55 PM 60.8 °F - 41.0 °F 48% 29.92 in 10.0 mi NNW 18.4 mph 23.0 mph N/A   Overcast
9:15 PM 60.8 °F - 41.0 °F 48% 29.92 in 10.0 mi NNW 19.6 mph 24.2 mph N/A   Overcast
9:35 PM 60.8 °F - 41.0 °F 48% 29.93 in 10.0 mi NNW 10.4 mph 17.3 mph N/A   Overcast
9:55 PM 60.8 °F - 41.0 °F 48% 29.92 in 10.0 mi Calm Calm - N/A Thunderstorm Mostly Cloudy
10:15 PM 60.8 °F - 41.0 °F 48% 29.93 in 10.0 mi NNW 13.8 mph 18.4 mph N/A   Scattered Clouds
10:35 PM 60.8 °F - 41.0 °F 48% 29.94 in 10.0 mi NNW 12.7 mph 18.4 mph N/A Thunderstorm Mostly Cloudy
10:55 PM 60.8 °F - 41.0 °F 48% 29.97 in 10.0 mi Calm Calm - N/A Thunderstorm Overcast
11:15 PM 59.0 °F - 41.0 °F 51% 29.95 in 10.0 mi NNW 13.8 mph - N/A   Mostly Cloudy
11:35 PM 57.2 °F - 44.6 °F 63% 29.96 in 7.0 mi Calm Calm - N/A Rain , Thunderstorm Light Thunderstorms and Rain
11:55 PM 57.2 °F - 42.8 °F 59% 29.97 in 10.0 mi NNW 9.2 mph 17.3 mph 0.01 in   Overcast